Starlink 31263

operational
NORAD ID: 58832 Int'l Des: 2024-017 Owner: SPXS Country: US Constellation: starlink
LEOCIRCULAR

About Starlink 31263

Description loading...

Live Position

Loading 3D Globe...

Upcoming Passes

Altitude History

Altitude vs Time

uPlot chart will show altitude changes over time

Two-Line Element Set

1 58832U 24017G 25351.92125785 -.00001769 00000-0 -47634-4 0 9998
2 58832 53.1598 213.7199 0001506 90.3152 269.8022 15.30192674107794
Epoch: Dec 17, 2025 • Age: 13 hours

Current Status

Altitude 477.8 km
Velocity 7.63 km/s
Sub-Earth Point -8.56°S, 138.04°E
Launch Date Jan 24, 2024
Age 1.9 years
Type internet

Technical Details

Classification Payload
Mass 730.00 kg
Dry Mass 700.00 kg
Total Mass 730.00 kg
Length 0.30 m
Diameter 4.10 m
Span 29.00 m
Shape Box + pan
Manufacturer SPXS
Bus Type Starlink V2M
Phase Status In Orbit
Owner/State SPXS/US

Large Constellations

Loading constellations...